EN

Hourly Weather Bolshoe Gorohovische

Today, 22 October, Thursday

Time Temperature Precipitation Wind Pressure Humidity
00:00 +7°C° 0.1 mm 2 mps 743 mmHg 92%
01:00 +7°C° 0.1 mm 2 mps 743 mmHg 93%
02:00 +7°C° 0 mm 3 mps 743 mmHg 93%
03:00 +8°C° 0.1 mm 3 mps 743 mmHg 93%
04:00 +8°C° 0.1 mm 3 mps 743 mmHg 93%
05:00 +7°C° 0.1 mm 4 mps 742 mmHg 93%
06:00 +7°C° 0 mm 4 mps 742 mmHg 91%
07:00 +7°C° 0 mm 5 mps 742 mmHg 89%
08:00 +7°C° 0 mm 5 mps 741 mmHg 87%
09:00 +8°C° 0 mm 6 mps 741 mmHg 84%
10:00 +9°C° 0 mm 6 mps 741 mmHg 80%
11:00 +10°C° 0 mm 6 mps 741 mmHg 76%
12:00 +11°C° 0 mm 7 mps 741 mmHg 74%
13:00 +12°C° 0 mm 7 mps 741 mmHg 72%
14:00 +14°C° 0 mm 7 mps 741 mmHg 70%
15:00 +14°C° 0 mm 6 mps 741 mmHg 74%
16:00 +13°C° 0 mm 5 mps 741 mmHg 77%
17:00 +13°C° 0 mm 5 mps 741 mmHg 80%
18:00 +12°C° 0 mm 5 mps 741 mmHg 82%
19:00 +12°C° 0 mm 5 mps 742 mmHg 83%
20:00 +12°C° 0 mm 5 mps 742 mmHg 85%
21:00 +10°C° 0 mm 5 mps 742 mmHg 87%
22:00 +10°C° 0 mm 5 mps 742 mmHg 89%
23:00 +11°C° 0 mm 4 mps 742 mmHg 91%

Tomorrow, 23 October, Friday

Time Temperature Precipitation Wind Pressure Humidity
00:00 +10°C° 0 mm 4 mps 742 mmHg 92%
01:00 +10°C° 0 mm 4 mps 743 mmHg 93%
02:00 +10°C° 0 mm 4 mps 743 mmHg 94%
03:00 +10°C° 0 mm 3 mps 743 mmHg 94%
04:00 +10°C° 0 mm 3 mps 742 mmHg 95%
05:00 +9°C° 0 mm 3 mps 742 mmHg 95%
06:00 +10°C° 0 mm 3 mps 742 mmHg 94%
07:00 +10°C° 0 mm 4 mps 742 mmHg 93%
08:00 +10°C° 0 mm 4 mps 741 mmHg 92%
09:00 +10°C° 0 mm 5 mps 741 mmHg 87%
10:00 +13°C° 0 mm 5 mps 741 mmHg 82%
11:00 +14°C° 0 mm 6 mps 740 mmHg 76%
12:00 +13°C° 0.3 mm 6 mps 740 mmHg 79%
13:00 +13°C° 0.3 mm 6 mps 740 mmHg 82%
14:00 +13°C° 0.3 mm 6 mps 740 mmHg 85%
15:00 +13°C° 0.1 mm 5 mps 740 mmHg 85%
16:00 +13°C° 0.1 mm 5 mps 740 mmHg 86%
17:00 +13°C° 0.1 mm 4 mps 740 mmHg 87%
18:00 +12°C° 0 mm 4 mps 740 mmHg 89%
19:00 +11°C° 0 mm 3 mps 740 mmHg 91%
20:00 +11°C° 0 mm 3 mps 740 mmHg 93%
21:00 +10°C° 0 mm 3 mps 740 mmHg 94%
22:00 +10°C° 0 mm 3 mps 740 mmHg 95%
23:00 +9°C° 0 mm 2 mps 741 mmHg 96%

Day after tomorrow, 24 October, Saturday

Time Temperature Precipitation Wind Pressure Humidity
00:00 +9°C° 0 mm 2 mps 741 mmHg 95%
01:00 +9°C° 0 mm 2 mps 741 mmHg 95%
02:00 +8°C° 0 mm 2 mps 741 mmHg 95%
03:00 +8°C° 0 mm 2 mps 741 mmHg 94%
04:00 +8°C° 0 mm 2 mps 741 mmHg 94%
05:00 +8°C° 0 mm 2 mps 741 mmHg 93%
06:00 +8°C° 0 mm 2 mps 741 mmHg 92%
07:00 +9°C° 0 mm 1 mps 741 mmHg 91%
08:00 +9°C° 0 mm 1 mps 741 mmHg 89%
09:00 +10°C° 0.1 mm 1 mps 741 mmHg 88%
10:00 +11°C° 0.1 mm 1 mps 741 mmHg 87%
11:00 +10°C° 0.1 mm 2 mps 741 mmHg 85%
12:00 +11°C° 0.8 mm 1 mps 741 mmHg 89%
13:00 +11°C° 0.8 mm 1 mps 741 mmHg 92%
14:00 +11°C° 0.8 mm 1 mps 741 mmHg 96%
15:00 +10°C° 1.9 mm 1 mps 740 mmHg 96%
16:00 +10°C° 1.9 mm 1 mps 740 mmHg 96%
17:00 +10°C° 1.9 mm 1 mps 740 mmHg 97%
18:00 +10°C° 0.2 mm 1 mps 741 mmHg 96%
19:00 +9°C° 0.2 mm 1 mps 741 mmHg 95%
20:00 +8°C° 0.2 mm 0 mps 741 mmHg 94%
21:00 +9°C° 0 mm 1 mps 741 mmHg 94%
22:00 +8°C° 0 mm 2 mps 742 mmHg 94%
23:00 +8°C° 0 mm 3 mps 742 mmHg 94%

, 25 October, Sunday

Time Temperature Precipitation Wind Pressure Humidity
00:00 +8°C° 0 mm 3 mps 742 mmHg 94%
01:00 +7°C° 0 mm 4 mps 742 mmHg 95%
02:00 +7°C° 0 mm 4 mps 743 mmHg 95%
03:00 +7°C° 0 mm 4 mps 743 mmHg 94%
04:00 +8°C° 0 mm 3 mps 744 mmHg 93%
05:00 +8°C° 0 mm 3 mps 744 mmHg 92%
06:00 +9°C° 0 mm 3 mps 744 mmHg 90%
07:00 +9°C° 0 mm 3 mps 745 mmHg 89%
08:00 +9°C° 0 mm 2 mps 745 mmHg 87%
09:00 +9°C° 0 mm 2 mps 745 mmHg 85%
10:00 +9°C° 0 mm 2 mps 746 mmHg 83%
11:00 +10°C° 0 mm 2 mps 746 mmHg 81%
12:00 +10°C° 0 mm 2 mps 746 mmHg 78%
13:00 +12°C° 0 mm 2 mps 746 mmHg 75%
14:00 +13°C° 0 mm 2 mps 747 mmHg 72%
15:00 +12°C° 0 mm 2 mps 747 mmHg 77%
16:00 +10°C° 0 mm 2 mps 747 mmHg 81%
17:00 +10°C° 0 mm 1 mps 747 mmHg 86%
18:00 +9°C° 0 mm 1 mps 747 mmHg 88%
19:00 +9°C° 0 mm 1 mps 747 mmHg 89%
20:00 +7°C° 0 mm 2 mps 747 mmHg 91%
21:00 +7°C° 0 mm 2 mps 748 mmHg 92%
22:00 +7°C° 0 mm 2 mps 748 mmHg 93%
23:00 +6°C° 0 mm 2 mps 748 mmHg 94%

25 October, Sunday

Time Temperature Precipitation Wind Pressure Humidity
00:00 +8°C° 0 mm 3 mps 742 mmHg 94%
01:00 +7°C° 0 mm 4 mps 742 mmHg 95%
02:00 +7°C° 0 mm 4 mps 743 mmHg 95%
03:00 +7°C° 0 mm 4 mps 743 mmHg 94%
04:00 +8°C° 0 mm 3 mps 744 mmHg 93%
05:00 +8°C° 0 mm 3 mps 744 mmHg 92%
06:00 +9°C° 0 mm 3 mps 744 mmHg 90%
07:00 +9°C° 0 mm 3 mps 745 mmHg 89%
08:00 +9°C° 0 mm 2 mps 745 mmHg 87%
09:00 +9°C° 0 mm 2 mps 745 mmHg 85%
10:00 +9°C° 0 mm 2 mps 746 mmHg 83%
11:00 +10°C° 0 mm 2 mps 746 mmHg 81%
12:00 +10°C° 0 mm 2 mps 746 mmHg 78%
13:00 +12°C° 0 mm 2 mps 746 mmHg 75%
14:00 +13°C° 0 mm 2 mps 747 mmHg 72%
15:00 +12°C° 0 mm 2 mps 747 mmHg 77%
16:00 +10°C° 0 mm 2 mps 747 mmHg 81%
17:00 +10°C° 0 mm 1 mps 747 mmHg 86%
18:00 +9°C° 0 mm 1 mps 747 mmHg 88%
19:00 +9°C° 0 mm 1 mps 747 mmHg 89%
20:00 +7°C° 0 mm 2 mps 747 mmHg 91%
21:00 +7°C° 0 mm 2 mps 748 mmHg 92%
22:00 +7°C° 0 mm 2 mps 748 mmHg 93%
23:00 +6°C° 0 mm 2 mps 748 mmHg 94%

26 October, Monday

Time Temperature Precipitation Wind Pressure Humidity
00:00 +6°C° 0 mm 2 mps 748 mmHg 94%
01:00 +6°C° 0 mm 2 mps 748 mmHg 94%
02:00 +6°C° 0 mm 2 mps 748 mmHg 94%
03:00 +5°C° 0 mm 2 mps 748 mmHg 95%
04:00 +5°C° 0 mm 2 mps 748 mmHg 95%
05:00 +5°C° 0 mm 2 mps 748 mmHg 95%
06:00 +4°C° 0 mm 3 mps 748 mmHg 94%
07:00 +5°C° 0 mm 3 mps 748 mmHg 93%
08:00 +5°C° 0 mm 3 mps 748 mmHg 92%
09:00 +6°C° 0 mm 4 mps 748 mmHg 89%
10:00 +7°C° 0 mm 4 mps 748 mmHg 85%
11:00 +8°C° 0 mm 4 mps 748 mmHg 82%
12:00 +8°C° 0 mm 4 mps 748 mmHg 81%
13:00 +10°C° 0 mm 4 mps 748 mmHg 79%
14:00 +10°C° 0 mm 4 mps 747 mmHg 78%
15:00 +8°C° 0 mm 4 mps 747 mmHg 81%
16:00 +8°C° 0 mm 4 mps 747 mmHg 85%
17:00 +7°C° 0 mm 4 mps 747 mmHg 89%
18:00 +7°C° 0 mm 4 mps 747 mmHg 89%
19:00 +7°C° 0 mm 4 mps 747 mmHg 90%
20:00 +7°C° 0 mm 5 mps 747 mmHg 90%
21:00 +7°C° 0 mm 5 mps 746 mmHg 89%
22:00 +7°C° 0 mm 5 mps 746 mmHg 89%
23:00 +7°C° 0 mm 5 mps 746 mmHg 88%

27 October, Tuesday

Time Temperature Precipitation Wind Pressure Humidity
00:00 +7°C° 0.3 mm 5 mps 746 mmHg 89%
01:00 +7°C° 0.3 mm 5 mps 746 mmHg 91%
02:00 +7°C° 0.3 mm 5 mps 745 mmHg 92%
03:00 +8°C° 0.6 mm 5 mps 745 mmHg 93%
04:00 +8°C° 0.6 mm 5 mps 745 mmHg 93%
05:00 +8°C° 0.6 mm 5 mps 745 mmHg 94%
06:00 +8°C° 0.2 mm 5 mps 745 mmHg 93%
07:00 +8°C° 0.2 mm 5 mps 745 mmHg 93%
08:00 +8°C° 0.2 mm 5 mps 745 mmHg 92%
09:00 +9°C° 0 mm 5 mps 745 mmHg 89%
10:00 +10°C° 0 mm 5 mps 745 mmHg 86%
11:00 +10°C° 0 mm 5 mps 745 mmHg 84%
12:00 +12°C° 0 mm 5 mps 745 mmHg 82%
13:00 +12°C° 0 mm 5 mps 745 mmHg 80%
14:00 +13°C° 0 mm 5 mps 745 mmHg 78%
15:00 +12°C° 0 mm 4 mps 745 mmHg 82%
16:00 +11°C° 0 mm 4 mps 745 mmHg 86%
17:00 +11°C° 0 mm 4 mps 745 mmHg 90%
18:00 +11°C° 0 mm 4 mps 745 mmHg 90%
19:00 +11°C° 0 mm 4 mps 745 mmHg 90%
20:00 +11°C° 0 mm 4 mps 745 mmHg 90%
21:00 +11°C° 0 mm 4 mps 745 mmHg 91%
22:00 +11°C° 0 mm 3 mps 745 mmHg 92%
23:00 +10°C° 0 mm 3 mps 745 mmHg 93%
Show more